Location: Praha
(50.0830°N, 14.4670°E)
Time: 03:46:22
(UTC+02:00)

ISS - Pass Details

Date: 19 May 2021
Orbit: 417 x 422 km, 51.6° (Epoch: 13 June)

Event Time Altitude Azimuth Distance (km) Brightness Sun altitude
Rises 00:29:53 0° 282° (WNW) 2,369 0.3 -19.9°
Reaches altitude 10° 00:31:59 10° 284° (WNW) 1,505 -0.7 -19.9°
Maximum altitude 00:35:21 74° 10° (N) 442 -3.6 -20.0°
Enters shadow 00:36:17 44° 84° (E) 591 -3.1 -20.0°
